Tracking 25710 objects as of 6-Jul-2022
HD Live streaming from Space Station
objects crossing your sky now

FENGYUN 1C DEB

Track FENGYUN 1C DEB now!
10-day predictions


NORAD ID: 31988
Int'l Code: 1999-025CPR
Perigee: 825.9 km
Apogee: 931.4 km
Inclination: 98.1 °
Period: 102.4 minutes
Semi major axis: 7249 km
RCS: 0.0166 m2 (small)
Launch date: May 10, 1999
Source: People's Republic of China (PRC)
Launch site: Taiyaun Space Center, China (TSC)

Note: This is SATELLITE DEBRIS
aabbcc
Your satellite tracking list
Your tracking list is empty




NASA's NSSDC Master Catalog

Two Line Element Set (TLE):
1 31988U 99025CPR 22186.24610104  .00001333  00000-0  80955-3 0  9991
2 31988  98.0985 354.2290 0072752 325.2224  34.4203 14.06450169464138
Source of the keplerian elements: AFSPC